Location: Codford Saint Peter
(51.1597°N, 2.0531°W)
Time: 21:40:18
(UTC+00:00)

ATLAS 2AS CENTAUR R/B - Pass Details

Date: 18 September 2020
Orbit: 939 x 1273 km, 63.7° (Epoch: 27 October)

Event Time Altitude Azimuth Distance (km) Brightness Sun altitude
Rises 22:52:28 0° 240° (WSW) 4,220 5.7 -35.4°
Enters shadow 22:52:42 - 240° (WSW) 4,141 5.7 -35.4°
Exits shadow 22:59:06 30° 256° (WSW) 2,104 4.2 -35.8°
Maximum altitude 23:03:12 60° 324° (NW) 1,432 3.4 -36.0°
Drops below altitude 10° 23:10:53 10° 44° (NE) 3,189 5.5 -36.3°
Sets 23:13:40 0° 48° (NE) 4,119 6.1 -36.5°
